[[{"header":{"parameterUnit":"m.s-1","parameterCategory":1,"la1":30.2991,"la2":30.254,"lo1":-89.0895,"lo2":-89.0444,"dy":0.0017,"dx":0.0017,"nx":28,"ny":28,"refTime":"2024-03-17T03:00:00:Z","depth":0,"parameterNumber":2,"parameterNumberName":"U-component_of_WINDS"},"data":[0,0,0,0,0,0,0,0,0,0,0,0,0,0,0,0,0,0,0,0,0,0,0,0,0,0,0,0,0,0,0,0,0,0,0,0,0,0,0,0,0,0,0,0,0,0,0,0,0,0,0,0,0,0,0,0,0,0,-1.3727,-1.3728,0,-1.3833,-1.3835,-1.3836,-1.3802,-1.3799,-1.3797,-1.3795,-1.3907,-1.3912,-1.3917,0,0,0,0,0,0,0,0,0,0,0,0,0,-1.3497,-1.3502,-1.3727,-1.3728,-1.373,-1.3833,-1.3835,-1.3836,-1.3802,-1.3799,-1.3796,-1.3794,-1.3905,-1.3911,-1.3917,0,0,0,0,0,0,0,0,0,0,0,0,0,-1.36,-1.3503,-1.3727,-1.3725,-1.3726,-1.3833,-1.3835,-1.3836,-1.3803,-1.3799,-1.3796,-1.3793,-1.3903,-1.3911,-1.3918,-1.4034,0,0,-1.3942,-1.3945,0,0,0,0,0,0,0,0,-1.3594,-1.3608,-1.3724,-1.3725,-1.3727,-1.3801,-1.3795,-1.3903,-1.3804,-1.3774,-1.3795,-1.3791,-1.3875,-1.3884,-1.3912,-1.4039,-1.4044,-1.3942,-1.3947,-1.395,-1.3953,0,0,0,0,0,0,0,-1.3587,-1.3604,-1.3769,-1.3726,-1.3727,-1.372,-1.3731,-1.3815,-1.3842,-1.3776,-1.3774,-1.3787,-1.3875,-1.3905,-1.3914,-1.4046,-1.3942,-1.3949,-1.3954,-1.3957,-1.4274,-1.4278,0,0,0,0,0,0,-1.3579,-1.3598,-1.3766,-1.3772,-1.365,-1.3727,-1.3739,-1.378,-1.3841,-1.3847,-1.3789,-1.3785,-1.3893,-1.3905,-1.3918,-1.4059,-1.395,-1.3957,-1.3962,-1.4271,-1.4275,-1.4279,0,0,0,0,0,0,-1.3574,-1.3594,-1.3761,-1.3685,-1.3705,-1.3734,-1.3781,-1.3784,-1.3814,-1.3851,-1.3856,-1.3815,-1.3891,-1.3907,-1.4006,-1.4062,-1.3961,-1.3968,-1.4266,-1.4272,-1.4277,-1.4341,0,0,0,0,0,0,-1.3567,-1.3592,-1.3636,-1.3686,-1.3709,-1.3847,-1.3785,-1.3789,-1.3827,-1.3822,-1.3877,-1.3882,-1.389,-1.3994,-1.4013,-1.4071,-1.3974,-1.4261,-1.4269,-1.4275,-1.4334,-1.4348,-1.436,0,0,0,0,0,-1.3559,-1.365,-1.3639,-1.3659,-1.3765,-1.385,-1.3864,-1.3869,-1.3832,-1.3877,-1.39,-1.3881,-1.4052,-1.4005,-1.4026,-1.4087,-1.4258,-1.4267,-1.4275,-1.4328,-1.4345,-1.436,0,0,0,0,0,0,-1.3608,-1.3657,-1.3645,-1.3754,-1.3798,-1.3844,-1.3901,-1.3887,-1.3944,-1.3937,-1.3942,-1.3954,-1.4056,-1.408,-1.4026,-1.4202,-1.415,-1.4163,-1.4183,-1.4199,-1.4212,-1.4205,-1.398,0,0,0,0,0,-1.3631,-1.3696,-1.3735,-1.3828,-1.385,-1.3872,-1.3909,-1.3909,-1.3956,-1.3974,-1.4005,-1.4052,-1.4116,-1.4159,-1.422,-1.4336,-1.4348,-1.4388,-1.4401,-1.4412,-1.4424,-1.4488,-1.4507,-1.4308,-1.4308,-1.4307,0,0,-1.3681,-1.3715,-1.3756,-1.3839,-1.3873,-1.394,-1.3888,-1.3961,-1.4012,-1.3986,-1.4081,-1.4105,-1.4157,-1.4265,-1.4314,-1.4289,-1.4481,-1.4423,-1.4431,-1.4438,-1.4499,-1.4518,-1.4535,-1.4314,-1.4313,-1.4312,0,0,-1.3806,-1.3837,-1.3919,-1.3954,-1.4005,-1.4019,-1.4038,-1.4086,-1.4101,-1.4196,-1.4178,-1.4238,-1.4349,-1.4387,-1.4421,-1.4559,-1.4543,-1.4578,-1.4648,-1.4711,-1.4726,-1.474,-1.4791,-1.4809,-1.459,-1.459,-1.459,0,-1.3861,-1.3961,-1.3963,-1.4038,-1.4075,-1.4053,-1.4136,-1.417,-1.424,-1.4267,-1.4237,-1.4375,-1.4409,-1.4526,-1.4559,-1.4587,-1.461,-1.4573,-1.4724,-1.4738,-1.4751,-1.4799,-1.4818,-1.4594,-1.4594,-1.4593,-1.4593,0,-1.4027,-1.4097,-1.4156,-1.4223,-1.4267,-1.4346,-1.436,-1.4405,-1.44,-1.4417,-1.4514,-1.4553,-1.4622,-1.4649,-1.4647,-1.4767,-1.4749,-1.4722,-1.467,-1.4774,-1.482,-1.4838,-1.46,-1.4598,-1.4597,-1.4596,0,0,-1.4188,-1.4254,-1.4276,-1.4306,-1.4361,-1.4415,-1.4493,-1.4559,-1.4598,-1.4646,-1.4713,-1.4806,-1.478,-1.4819,-1.482,-1.4874,-1.4983,-1.484,-1.4841,-1.4867,-1.5119,-1.5141,-1.5162,-1.4972,-1.4975,-1.4978,-1.5115,0,-1.4319,-1.4455,-1.4458,-1.4584,-1.4649,-1.4628,-1.4696,-1.4737,-1.4754,-1.4813,-1.4832,-1.4899,-1.4859,-1.4882,-1.4935,-1.4959,-1.5034,-1.4948,-1.5035,-1.5038,-1.5025,-1.5186,-1.521,-1.5337,-1.5133,-1.5136,-1.5138,0,-1.449,-1.4543,-1.4675,-1.472,-1.4748,-1.4809,-1.487,-1.4925,-1.4972,-1.4981,-1.5023,-1.5016,-1.5096,-1.5039,-1.515,-1.5092,-1.5127,-1.5144,-1.5149,-1.516,-1.5096,-1.5203,-1.5378,-1.5398,-1.5166,-1.5163,-1.5161,0,-1.4597,-1.4701,-1.4793,-1.4819,-1.4874,-1.4918,-1.4943,-1.4986,-1.5025,-1.5079,-1.5105,-1.5167,-1.5202,-1.5251,-1.5261,-1.5218,-1.5373,-1.5316,-1.5384,-1.5384,-1.5419,-1.5418,-1.5605,-1.5438,-1.5438,-1.5438,-1.5437,0,-1.4744,-1.4826,-1.4842,-1.4899,-1.499,-1.4992,-1.5083,-1.5104,-1.5143,-1.5204,-1.519,-1.5248,-1.5256,-1.5317,-1.5325,-1.5417,-1.5432,-1.5442,-1.5444,-1.5445,-1.5444,-1.547,-1.5463,-1.5443,-1.5442,-1.5441,-1.544,0,-1.488,-1.4893,-1.4993,-1.5036,-1.5049,-1.5114,-1.5152,-1.5207,-1.5221,-1.5299,-1.5318,-1.5342,-1.5412,-1.5426,-1.551,-1.5515,-1.5625,-1.5617,-1.5609,-1.5609,-1.5676,-1.5671,-1.5889,-1.5918,-1.5731,-1.5732,-1.5734,0,-1.4974,-1.5036,-1.5086,-1.5125,-1.5152,-1.5216,-1.5257,-1.5261,-1.5304,-1.5361,-1.541,-1.5478,-1.5533,-1.5647,-1.5672,-1.5736,-1.573,-1.5802,-1.574,-1.5739,-1.5734,-1.5731,-1.5738,-1.5815,-1.5817,-1.5819,-1.582,0,-1.514,-1.5144,-1.5202,-1.5262,-1.531,-1.5358,-1.5404,-1.5437,-1.5448,-1.5497,-1.5568,-1.5611,-1.5695,-1.5764,-1.5827,-1.5854,-1.584,-1.5839,-1.5859,-1.5862,-1.5855,-1.5861,-1.5644,-1.5835,-1.5833,-1.5832,-1.5832,-1.5831,-1.526,-1.5314,-1.5358,-1.5423,-1.5457,-1.55,-1.5554,-1.5575,-1.5634,-1.5703,-1.5702,-1.578,-1.5825,-1.5908,-1.5939,-1.6001,-1.5978,-1.6006,-1.6013,-1.602,-1.6028,-1.5843,-1.6012,-1.6012,-1.6011,-1.6011,-1.6011,0,-1.5427,-1.5453,-1.5513,-1.5577,-1.5628,-1.5608,-1.5657,-1.5702,-1.5771,-1.5813,-1.5868,-1.595,-1.6016,-1.6046,-1.6111,-1.6155,-1.615,-1.6172,-1.6171,-1.6177,-1.6043,-1.6021,-1.6175,-1.6175,-1.6175,-1.6175,-1.6175,-1.6175,-1.552,-1.5612,-1.562,-1.5729,-1.5755,-1.5831,-1.5861,-1.5901,-1.5935,-1.6027,-1.6081,-1.61,-1.6137,-1.6205,-1.6265,-1.6272,-1.6298,-1.6324,-1.6328,-1.6203,-1.6186,-1.6171,-1.615,-1.6329,-1.6329,-1.6457,-1.6458,-1.6459]},{"header":{"parameterUnit":"m.s-1","parameterCategory":1,"la1":30.2991,"la2":30.254,"lo1":-89.0895,"lo2":-89.0444,"dy":0.0017,"dx":0.0017,"nx":28,"ny":28,"refTime":"2024-03-17T03:00:00:Z","depth":0,"parameterNumber":3,"parameterNumberName":"V-component_of_WINDS"},"data":[0,0,0,0,0,0,0,0,0,0,0,0,0,0,0,0,0,0,0,0,0,0,0,0,0,0,0,0,0,0,0,0,0,0,0,0,0,0,0,0,0,0,0,0,0,0,0,0,0,0,0,0,0,0,0,0,0,0,-7.8374,-7.8375,0,-7.8458,-7.8458,-7.8459,-7.8365,-7.8362,-7.8358,-7.8355,-7.8435,-7.844,-7.8445,0,0,0,0,0,0,0,0,0,0,0,0,0,-7.8127,-7.8132,-7.8374,-7.8375,-7.8376,-7.8457,-7.8459,-7.846,-7.8366,-7.8361,-7.8357,-7.8353,-7.8433,-7.8439,-7.8446,0,0,0,0,0,0,0,0,0,0,0,0,0,-7.8225,-7.8134,-7.8374,-7.8339,-7.8337,-7.8457,-7.8459,-7.846,-7.8367,-7.8361,-7.8356,-7.8351,-7.8431,-7.8439,-7.8447,-7.8603,0,0,-7.8471,-7.8475,0,0,0,0,0,0,0,0,-7.822,-7.8234,-7.8343,-7.8342,-7.8339,-7.8396,-7.8401,-7.8508,-7.8368,-7.8355,-7.8355,-7.8348,-7.8426,-7.8434,-7.8461,-7.8607,-7.861,-7.8472,-7.8477,-7.8481,-7.8483,0,0,0,0,0,0,0,-7.8213,-7.823,-7.8407,-7.8345,-7.8343,-7.8318,-7.8326,-7.8421,-7.8419,-7.8356,-7.8349,-7.8361,-7.8423,-7.8453,-7.8462,-7.8612,-7.8472,-7.8479,-7.8484,-7.8487,-7.889,-7.8896,0,0,0,0,0,0,-7.8211,-7.8225,-7.8404,-7.8409,-7.8265,-7.8326,-7.8335,-7.8383,-7.8418,-7.8418,-7.8365,-7.8356,-7.8442,-7.8453,-7.8464,-7.8651,-7.8481,-7.8488,-7.8493,-7.8884,-7.8891,-7.8898,0,0,0,0,0,0,-7.8206,-7.8228,-7.8401,-7.8316,-7.8336,-7.8336,-7.839,-7.8387,-7.8417,-7.8425,-7.8423,-7.8397,-7.8438,-7.8453,-7.857,-7.8652,-7.8492,-7.8499,-7.8877,-7.8887,-7.8895,-7.9024,0,0,0,0,0,0,-7.8199,-7.8227,-7.8288,-7.8318,-7.8341,-7.8507,-7.8396,-7.8393,-7.8432,-7.8421,-7.8454,-7.8454,-7.8435,-7.8558,-7.8578,-7.866,-7.8506,-7.887,-7.8881,-7.8892,-7.9012,-7.9036,-7.9056,0,0,0,0,0,-7.8191,-7.8319,-7.8291,-7.8313,-7.8417,-7.8512,-7.8525,-7.8502,-7.8439,-7.85,-7.8504,-7.8453,-7.864,-7.8571,-7.8592,-7.8678,-7.8865,-7.8878,-7.8891,-7.9002,-7.9031,-7.9056,0,0,0,0,0,0,-7.8296,-7.8322,-7.8292,-7.8434,-7.8472,-7.8496,-7.8571,-7.8533,-7.8588,-7.8575,-7.8543,-7.8551,-7.8675,-7.8688,-7.8611,-7.8832,-7.8742,-7.876,-7.8819,-7.8847,-7.8868,-7.8862,-7.8512,0,0,0,0,0,-7.8337,-7.8414,-7.8431,-7.8555,-7.8576,-7.8571,-7.8611,-7.8591,-7.8627,-7.8642,-7.8655,-7.8692,-7.8758,-7.8803,-7.8865,-7.9013,-7.9019,-7.9083,-7.9105,-7.9123,-7.9139,-7.9218,-7.9247,-7.8941,-7.8941,-7.894,0,0,-7.842,-7.8443,-7.8493,-7.8577,-7.8604,-7.8682,-7.8584,-7.8671,-7.8729,-7.8655,-7.8767,-7.8778,-7.8816,-7.895,-7.9009,-7.8964,-7.9225,-7.914,-7.9154,-7.916,-7.9235,-7.9264,-7.929,-7.895,-7.8948,-7.8946,0,0,-7.8612,-7.8638,-7.8744,-7.8773,-7.8816,-7.8812,-7.8838,-7.8868,-7.8873,-7.8986,-7.8931,-7.8998,-7.9114,-7.9144,-7.9174,-7.9378,-7.9333,-7.9399,-7.9513,-7.9591,-7.9616,-7.9637,-7.971,-7.9736,-7.9414,-7.9415,-7.9415,0,-7.8709,-7.8827,-7.8803,-7.8895,-7.8933,-7.8871,-7.8978,-7.9006,-7.9066,-7.9093,-7.9042,-7.9187,-7.9208,-7.9348,-7.9398,-7.9425,-7.9452,-7.9395,-7.9614,-7.9635,-7.9655,-7.9724,-7.9752,-7.9423,-7.9422,-7.9421,-7.942,0,-7.8945,-7.9028,-7.9108,-7.9171,-7.9217,-7.9316,-7.9305,-7.9355,-7.933,-7.9331,-7.9446,-7.9469,-7.9535,-7.9566,-7.9542,-7.9703,-7.9674,-7.962,-7.9528,-7.9692,-7.9757,-7.9783,-7.9434,-7.9431,-7.9429,-7.9427,0,0,-7.9205,-7.9254,-7.9284,-7.9312,-7.9355,-7.9417,-7.9512,-7.9579,-7.9623,-7.9666,-7.9744,-7.9844,-7.9794,-7.9829,-7.9807,-7.9876,-8.0036,-7.9812,-7.9813,-7.9853,-8.0215,-8.0256,-8.0287,-8.0006,-8.0011,-8.0015,-8.0212,0,-7.9399,-7.9567,-7.9548,-7.9707,-7.9783,-7.9726,-7.9809,-7.9843,-7.9847,-7.991,-7.9912,-7.9984,-7.9912,-7.9933,-7.9998,-8.0003,-8.0108,-7.9988,-8.0078,-8.0081,-8.0071,-8.0321,-8.0364,-8.0549,-8.0237,-8.0241,-8.0244,0,-7.9646,-7.9702,-7.987,-7.9902,-7.9933,-8.0008,-8.0068,-8.0129,-8.0167,-8.0164,-8.0204,-8.017,-8.0264,-8.0171,-8.03,-8.0219,-8.0254,-8.0262,-8.0268,-8.0276,-8.0173,-8.0335,-8.0607,-8.0635,-8.0283,-8.028,-8.0277,0,-7.982,-7.9936,-8.0052,-8.0077,-8.0117,-8.0171,-8.019,-8.0222,-8.0264,-8.0315,-8.0341,-8.0402,-8.0435,-8.0482,-8.0466,-8.04,-8.0598,-8.0504,-8.0597,-8.0598,-8.0642,-8.0639,-8.0923,-8.0664,-8.0664,-8.0663,-8.0663,0,-8.0038,-8.0143,-8.0131,-8.0202,-8.0318,-8.0294,-8.0408,-8.0419,-8.0449,-8.052,-8.0473,-8.054,-8.0514,-8.0579,-8.0566,-8.0675,-8.069,-8.069,-8.0685,-8.0694,-8.0695,-8.0717,-8.0704,-8.0671,-8.0669,-8.0668,-8.0667,0,-8.0252,-8.0248,-8.037,-8.0399,-8.0409,-8.0493,-8.0516,-8.0582,-8.0582,-8.0673,-8.0692,-8.0691,-8.0766,-8.0754,-8.0836,-8.0827,-8.0963,-8.0942,-8.0951,-8.0946,-8.1041,-8.1033,-8.135,-8.139,-8.1105,-8.1108,-8.111,0,-8.0392,-8.0472,-8.051,-8.0555,-8.0579,-8.0652,-8.0695,-8.0674,-8.072,-8.0769,-8.0829,-8.09,-8.0955,-8.1076,-8.1082,-8.1144,-8.1124,-8.1231,-8.1133,-8.114,-8.1126,-8.1122,-8.113,-8.1251,-8.1254,-8.1257,-8.1259,0,-8.064,-8.0634,-8.0699,-8.0764,-8.0816,-8.0865,-8.0909,-8.0948,-8.0931,-8.0985,-8.1062,-8.1105,-8.119,-8.126,-8.1319,-8.1335,-8.1295,-8.129,-8.1315,-8.1325,-8.1327,-8.1328,-8.1004,-8.1283,-8.128,-8.1278,-8.1277,-8.1276,-8.0821,-8.089,-8.0928,-8.1001,-8.1033,-8.1075,-8.1139,-8.1148,-8.1213,-8.1282,-8.1264,-8.1351,-8.1386,-8.146,-8.1484,-8.155,-8.151,-8.1547,-8.1556,-8.1565,-8.1577,-8.1317,-8.156,-8.156,-8.1559,-8.1559,-8.1558,0,-8.1067,-8.109,-8.1158,-8.1222,-8.128,-8.1238,-8.1285,-8.1335,-8.1413,-8.145,-8.1506,-8.1594,-8.1662,-8.1674,-8.1738,-8.1789,-8.1772,-8.1807,-8.1803,-8.1807,-8.1609,-8.1581,-8.1819,-8.1819,-8.1819,-8.1819,-8.1819,-8.1819,-8.1203,-8.1317,-8.1316,-8.1445,-8.1465,-8.1552,-8.1582,-8.1621,-8.165,-8.1751,-8.1809,-8.1816,-8.1843,-8.1909,-8.1969,-8.197,-8.1996,-8.2039,-8.2033,-8.1847,-8.1821,-8.1796,-8.177,-8.2044,-8.2045,-8.2226,-8.2227,-8.2229]}]]